Location: Bacharowice
(49.9333°N, 19.5833°E)
Time: 05:31:11
(UTC+00:00)

Envisat - Pass Details

Date: 11 October 2022
Orbit: 763 x 765 km, 98.2° (Epoch: 09 December)

Event Time Altitude Azimuth Distance (km) Brightness Sun altitude
Rises 03:57:17 0° 9° (N) 3,247 6.4 -10.4°
Reaches altitude 10° 03:59:41 10° 2° (N) 2,316 5.5 -10.0°
Maximum altitude 04:04:27 41° 294° (WNW) 1,098 3.4 -9.2°
Drops below altitude 10° 04:09:11 10° 225° (SW) 2,300 5.1 -8.5°
Sets 04:11:35 0° 218° (SW) 3,222 5.9 -8.1°
